******** Week 354 almanac for PRN-1 ******** ID: 1 Health: 0 Eccentricity: 0.001389026642 Time of Applicability(s): 147456 Orbital Inclination(rad): 0.9584347915 Rate of Right Ascen(r/s): -7.863184676e-09 SQRT(A) (m 1/2): 5153.586426 Right Ascen at Week(rad): -2.393840312 Argument of Perigee(rad): -0.01014464639 Mean Anom(rad): -0.7732817378 Af0(s): 0.0002705690796 Af1(s/s): -3.637979e-12 week: 354 ******** Week 354 almanac for PRN-2 ******** ID: 2 Health: 0 Eccentricity: 0.01698064804 Time of Applicability(s): 147456 Orbital Inclination(rad): 0.9639535271 Rate of Right Ascen(r/s): -7.680319916e-09 SQRT(A) (m 1/2): 5153.567871 Right Ascen at Week(rad): -2.556550134 Argument of Perigee(rad): -0.8460563181 Mean Anom(rad): 0.6199166156 Af0(s): 1.582716064e-05 Af1(s/s): 7.275958e-12 week: 354 ******** Week 354 almanac for PRN-3 ******** ID: 3 Health: 0 Eccentricity: 0.006356716156 Time of Applicability(s): 147456 Orbital Inclination(rad): 0.9925179272 Rate of Right Ascen(r/s): -8.011762293e-09 SQRT(A) (m 1/2): 5153.600098 Right Ascen at Week(rad): -1.407740461 Argument of Perigee(rad): 1.210352038 Mean Anom(rad): -3.004580757 Af0(s): 0.0004695390991 Af1(s/s): -1.091394e-11 week: 354 ******** Week 354 almanac for PRN-4 ******** ID: 4 Health: 0 Eccentricity: 0.003734588623 Time of Applicability(s): 147456 Orbital Inclination(rad): 0.9705628271 Rate of Right Ascen(r/s): -7.783181343e-09 SQRT(A) (m 1/2): 5153.708008 Right Ascen at Week(rad): -0.3364331459 Argument of Perigee(rad): -2.90893316 Mean Anom(rad): 0.04665496208 Af0(s): 3.090064697e-05 Af1(s/s): 3.637979e-12 week: 354 ******** Week 354 almanac for PRN-5 ******** ID: 5 Health: 0 Eccentricity: 0.005375385284 Time of Applicability(s): 147456 Orbital Inclination(rad): 0.9790955953 Rate of Right Ascen(r/s): -8.137481816e-09 SQRT(A) (m 1/2): 5153.629883 Right Ascen at Week(rad): -1.466967624 Argument of Perigee(rad): 1.425605945 Mean Anom(rad): 0.6573594538 Af0(s): -0.0001801281616 Af1(s/s): 0 week: 354 ******** Week 354 almanac for PRN-6 ******** ID: 6 Health: 0 Eccentricity: 0.003863811493 Time of Applicability(s): 147456 Orbital Inclination(rad): 0.9873886789 Rate of Right Ascen(r/s): -7.554600394e-09 SQRT(A) (m 1/2): 5153.570801 Right Ascen at Week(rad): -2.444497631 Argument of Perigee(rad): -0.6206667532 Mean Anom(rad): -1.626099031 Af0(s): -0.0004770758423 Af1(s/s): -3.637979e-12 week: 354 ******** Week 354 almanac for PRN-7 ******** ID: 7 Health: 0 Eccentricity: 0.02020263672 Time of Applicability(s): 147456 Orbital Inclination(rad): 0.950944651 Rate of Right Ascen(r/s): -7.714607058e-09 SQRT(A) (m 1/2): 5153.589844 Right Ascen at Week(rad): 0.6720779545 Argument of Perigee(rad): -2.004266491 Mean Anom(rad): -2.533677866 Af0(s): -0.0001085291016 Af1(s/s): -3.637979e-12 week: 354 ******** Week 354 almanac for PRN-8 ******** ID: 8 Health: 0 Eccentricity: 0.01143407822 Time of Applicability(s): 147456 Orbital Inclination(rad): 0.9443233667 Rate of Right Ascen(r/s): -7.886042771e-09 SQRT(A) (m 1/2): 5153.61377 Right Ascen at Week(rad): 2.720647129 Argument of Perigee(rad): 0.5028374793 Mean Anom(rad): 0.3160723223 Af0(s): 0.0003971863647 Af1(s/s): -3.637979e-12 week: 354 ******** Week 354 almanac for PRN-9 ******** ID: 9 Health: 0 Eccentricity: 0.003364086151 Time of Applicability(s): 147456 Orbital Inclination(rad): 0.9646665885 Rate of Right Ascen(r/s): -7.886042771e-09 SQRT(A) (m 1/2): 5153.533203 Right Ascen at Week(rad): -0.4003547545 Argument of Perigee(rad): 2.070970313 Mean Anom(rad): 0.8946699519 Af0(s): 0.0006089688477 Af1(s/s): 0 week: 354 ******** Week 354 almanac for PRN-10 ******** ID: 10 Health: 0 Eccentricity: 0.01096963882 Time of Applicability(s): 147456 Orbital Inclination(rad): 0.9920685187 Rate of Right Ascen(r/s): -7.988904198e-09 SQRT(A) (m 1/2): 5153.601074 Right Ascen at Week(rad): -1.410249658 Argument of Perigee(rad): -2.265405374 Mean Anom(rad): 2.30958035 Af0(s): -0.0004612486816 Af1(s/s): -3.637979e-12 week: 354 ******** Week 354 almanac for PRN-11 ******** ID: 11 Health: 0 Eccentricity: 0.002235889435 Time of Applicability(s): 147456 Orbital Inclination(rad): 0.9642351564 Rate of Right Ascen(r/s): -7.794610391e-09 SQRT(A) (m 1/2): 5153.734375 Right Ascen at Week(rad): -2.424776091 Argument of Perigee(rad): -2.248950284 Mean Anom(rad): -0.6634073678 Af0(s): -0.0003700540894 Af1(s/s): 1.455192e-11 week: 354 ******** Week 354 almanac for PRN-12 ******** ID: 12 Health: 0 Eccentricity: 0.009079933166 Time of Applicability(s): 147456 Orbital Inclination(rad): 0.9587703498 Rate of Right Ascen(r/s): -8.011762293e-09 SQRT(A) (m 1/2): 5153.497559 Right Ascen at Week(rad): 1.790013642 Argument of Perigee(rad): 1.536173527 Mean Anom(rad): 3.131915393 Af0(s): -0.0004793368652 Af1(s/s): 0 week: 354 ******** Week 354 almanac for PRN-13 ******** ID: 13 Health: 0 Eccentricity: 0.009905815124 Time of Applicability(s): 147456 Orbital Inclination(rad): 0.9762852945 Rate of Right Ascen(r/s): -7.657461821e-09 SQRT(A) (m 1/2): 5153.633789 Right Ascen at Week(rad): -0.2258966474 Argument of Perigee(rad): 1.002114895 Mean Anom(rad): 0.0431443332 Af0(s): 0.0005449065308 Af1(s/s): 0 week: 354 ******** Week 354 almanac for PRN-14 ******** ID: 14 Health: 0 Eccentricity: 0.006520271301 Time of Applicability(s): 147456 Orbital Inclination(rad): 0.942100293 Rate of Right Ascen(r/s): -8.206056101e-09 SQRT(A) (m 1/2): 5153.578125 Right Ascen at Week(rad): 1.736031075 Argument of Perigee(rad): -2.763566009 Mean Anom(rad): 2.93647553 Af0(s): 0.000576560852 Af1(s/s): 3.637979e-12 week: 354 ******** Week 354 almanac for PRN-15 ******** ID: 15 Health: 0 Eccentricity: 0.01659822464 Time of Applicability(s): 147456 Orbital Inclination(rad): 0.9424118828 Rate of Right Ascen(r/s): -8.183198006e-09 SQRT(A) (m 1/2): 5153.626953 Right Ascen at Week(rad): -0.5433254342 Argument of Perigee(rad): 1.494675527 Mean Anom(rad): -0.6924032 Af0(s): 0.0002992087036 Af1(s/s): 3.637979e-12 week: 354 ******** Week 354 almanac for PRN-16 ******** ID: 16 Health: 0 Eccentricity: 0.01504993439 Time of Applicability(s): 147456 Orbital Inclination(rad): 0.9579314541 Rate of Right Ascen(r/s): -8.023191341e-09 SQRT(A) (m 1/2): 5153.561523 Right Ascen at Week(rad): 1.807069067 Argument of Perigee(rad): 0.9228785703 Mean Anom(rad): 1.315785878 Af0(s): 0.0001507348633 Af1(s/s): 7.275958e-12 week: 354 ******** Week 354 almanac for PRN-17 ******** ID: 17 Health: 0 Eccentricity: 0.01280784607 Time of Applicability(s): 147456 Orbital Inclination(rad): 0.960112583 Rate of Right Ascen(r/s): -7.703178011e-09 SQRT(A) (m 1/2): 5153.517578 Right Ascen at Week(rad): 2.824642863 Argument of Perigee(rad): -1.133915902 Mean Anom(rad): 0.2071604353 Af0(s): -2.939329834e-05 Af1(s/s): -1.091394e-11 week: 354 ******** Week 354 almanac for PRN-18 ******** ID: 18 Health: 0 Eccentricity: 0.005695343018 Time of Applicability(s): 147456 Orbital Inclination(rad): 0.9723544688 Rate of Right Ascen(r/s): -7.691748963e-09 SQRT(A) (m 1/2): 5153.604004 Right Ascen at Week(rad): -2.448938161 Argument of Perigee(rad): -2.857204376 Mean Anom(rad): -1.774689563 Af0(s): -0.0003534732544 Af1(s/s): 1.091394e-11 week: 354 ******** Week 354 almanac for PRN-19 ******** ID: 19 Health: 0 Eccentricity: 0.01098203659 Time of Applicability(s): 147456 Orbital Inclination(rad): 0.9593156321 Rate of Right Ascen(r/s): -7.680319916e-09 SQRT(A) (m 1/2): 5153.65918 Right Ascen at Week(rad): 2.868540329 Argument of Perigee(rad): 2.916988806 Mean Anom(rad): 2.067258948 Af0(s): 0.0005426455078 Af1(s/s): 3.637979e-12 week: 354 ******** Week 354 almanac for PRN-20 ******** ID: 20 Health: 0 Eccentricity: 0.003684043884 Time of Applicability(s): 589824 Orbital Inclination(rad): 0.9607777075 Rate of Right Ascen(r/s): -7.897471818e-09 SQRT(A) (m 1/2): 5153.615234 Right Ascen at Week(rad): -1.359217458 Argument of Perigee(rad): -2.036017197 Mean Anom(rad): -0.4026242671 Af0(s): 0.0002856425659 Af1(s/s): 0 week: 354 ******** Week 354 almanac for PRN-21 ******** ID: 21 Health: 0 Eccentricity: 0.0005679130554 Time of Applicability(s): 147456 Orbital Inclination(rad): 0.9619521615 Rate of Right Ascen(r/s): -8.308917528e-09 SQRT(A) (m 1/2): 5153.687012 Right Ascen at Week(rad): -1.400219986 Argument of Perigee(rad): -0.4699699935 Mean Anom(rad): 2.966308011 Af0(s): 0.0003029770752 Af1(s/s): 7.275958e-12 week: 354 ******** Week 354 almanac for PRN-22 ******** ID: 22 Health: 0 Eccentricity: 0.01221179962 Time of Applicability(s): 147456 Orbital Inclination(rad): 0.9573681955 Rate of Right Ascen(r/s): -8.046049436e-09 SQRT(A) (m 1/2): 5153.563477 Right Ascen at Week(rad): 1.810411167 Argument of Perigee(rad): -0.9971260868 Mean Anom(rad): 0.8602943263 Af0(s): -4.522045898e-05 Af1(s/s): 3.637979e-12 week: 354 ******** Week 354 almanac for PRN-23 ******** ID: 23 Health: 0 Eccentricity: 0.00599861145 Time of Applicability(s): 147456 Orbital Inclination(rad): 0.9870710969 Rate of Right Ascen(r/s): -8.057478483e-09 SQRT(A) (m 1/2): 5153.648926 Right Ascen at Week(rad): -1.44215541 Argument of Perigee(rad): -2.747376071 Mean Anom(rad): -2.874836916 Af0(s): 0.0004755684936 Af1(s/s): 3.637979e-12 week: 354 ******** Week 354 almanac for PRN-24 ******** ID: 24 Health: 0 Eccentricity: 0.01782369614 Time of Applicability(s): 147456 Orbital Inclination(rad): 0.9350236082 Rate of Right Ascen(r/s): -7.851755628e-09 SQRT(A) (m 1/2): 5153.603516 Right Ascen at Week(rad): 0.5643483862 Argument of Perigee(rad): 1.130058855 Mean Anom(rad): -1.55337426 Af0(s): -0.0001236025879 Af1(s/s): 1.455192e-11 week: 354 ******** Week 354 almanac for PRN-25 ******** ID: 25 Health: 0 Eccentricity: 0.01294279099 Time of Applicability(s): 147456 Orbital Inclination(rad): 0.9470857306 Rate of Right Ascen(r/s): -8.137481816e-09 SQRT(A) (m 1/2): 5153.674316 Right Ascen at Week(rad): 1.696620952 Argument of Perigee(rad): 1.15124247 Mean Anom(rad): 2.978969719 Af0(s): 0.000354980603 Af1(s/s): -3.637979e-12 week: 354 ******** Week 354 almanac for PRN-26 ******** ID: 26 Health: 0 Eccentricity: 0.01097011566 Time of Applicability(s): 147456 Orbital Inclination(rad): 0.9278510496 Rate of Right Ascen(r/s): -8.343204671e-09 SQRT(A) (m 1/2): 5153.623535 Right Ascen at Week(rad): 1.622847187 Argument of Perigee(rad): 0.7026294889 Mean Anom(rad): 2.149280856 Af0(s): -0.0002479588501 Af1(s/s): -7.275958e-12 week: 354 ******** Week 354 almanac for PRN-27 ******** ID: 27 Health: 0 Eccentricity: 0.01418733597 Time of Applicability(s): 147456 Orbital Inclination(rad): 0.9534553461 Rate of Right Ascen(r/s): -7.771752296e-09 SQRT(A) (m 1/2): 5153.611816 Right Ascen at Week(rad): 2.752292599 Argument of Perigee(rad): 0.8669613004 Mean Anom(rad): 0.4069797839 Af0(s): -1.733450928e-05 Af1(s/s): -7.275958e-12 week: 354 ******** Week 354 almanac for PRN-28 ******** ID: 28 Health: 0 Eccentricity: 0.0003991127014 Time of Applicability(s): 147456 Orbital Inclination(rad): 0.9619341852 Rate of Right Ascen(r/s): -7.646032773e-09 SQRT(A) (m 1/2): 5153.721191 Right Ascen at Week(rad): 0.6458662076 Argument of Perigee(rad): 0.3410613038 Mean Anom(rad): -2.506763169 Af0(s): -0.0004815978882 Af1(s/s): 7.275958e-12 week: 354 ******** Week 354 almanac for PRN-29 ******** ID: 29 Health: 0 Eccentricity: 0.003257751465 Time of Applicability(s): 147456 Orbital Inclination(rad): 0.9627551046 Rate of Right Ascen(r/s): -7.703178011e-09 SQRT(A) (m 1/2): 5153.733398 Right Ascen at Week(rad): 2.841233149 Argument of Perigee(rad): 2.751207277 Mean Anom(rad): 0.2813221896 Af0(s): -0.0003082527954 Af1(s/s): 7.275958e-12 week: 354 ******** Week 354 almanac for PRN-30 ******** ID: 30 Health: 0 Eccentricity: 0.007892608643 Time of Applicability(s): 147456 Orbital Inclination(rad): 0.9362040543 Rate of Right Ascen(r/s): -7.897471818e-09 SQRT(A) (m 1/2): 5153.729492 Right Ascen at Week(rad): 0.6636889971 Argument of Perigee(rad): -2.346328104 Mean Anom(rad): -2.644309864 Af0(s): 7.386008301e-05 Af1(s/s): 1.091394e-11 week: 354 ******** Week 354 almanac for PRN-31 ******** ID: 31 Health: 0 Eccentricity: 0.01085948944 Time of Applicability(s): 147456 Orbital Inclination(rad): 0.9547076976 Rate of Right Ascen(r/s): -7.714607058e-09 SQRT(A) (m 1/2): 5153.715332 Right Ascen at Week(rad): 0.6961156881 Argument of Perigee(rad): 0.9317379086 Mean Anom(rad): 2.680924667 Af0(s): -0.000135661377 Af1(s/s): 3.637979e-12 week: 354 ******** Week 354 almanac for PRN-32 ******** ID: 32 Health: 0 Eccentricity: 0.009202957153 Time of Applicability(s): 147456 Orbital Inclination(rad): 0.9677465343 Rate of Right Ascen(r/s): -7.817468486e-09 SQRT(A) (m 1/2): 5153.672363 Right Ascen at Week(rad): -0.3835030618 Argument of Perigee(rad): -2.025359851 Mean Anom(rad): 1.0157477 Af0(s): -0.0001228489136 Af1(s/s): 1.818989e-11 week: 354